Flag for Russia Weather past 2 weeks in Samara, Russia

Now
61 °F

Mostly cloudy.


Feels Like: 61 °F
Forecast: 48 / 61 °F
Wind: 15 mph from Northwest

Location: Samara

Current Time: Aug 30, 2015 at 8:37:01 AM

Latest Report: Aug 30, 2015 at 7:30 AM


Visibility: N/A

Pressure: 29.59 "Hg

Humidity: 72%

Dew point: 52 °F

Location of SamaraLocation

Historic Weather in Samara — Graph

°F

Samara temperature yesterday

Maximum temperature yesterday: 75 °F (at 4:30 PM)
Minimum temperature yesterday: 59 °F (at 5:00 AM)
Average temperature yesterday: 67 °F

Past Weeks' High & Low Weather Summary

 TemperatureHumidityPressure
High82 °F (Aug 28, 3:30 PM)88% (Aug 20, 6:30 AM)30.21 "Hg (Aug 20, 6:30 AM)
Low41 °F (Aug 24, 4:30 AM)20% (Aug 28, 5:00 PM)29.59 "Hg (Aug 30, 3:00 AM)
Average61 °F56%29.96 "Hg
* Reported Aug 15 7:00 AM — Aug 30 7:00 AM, Samara, Weather by CustomWeather, © 2015

Note: Actual official high and low records may vary slightly from our data, if they occured in-between our weather recording intervals... More about our weather records

Advertising

Samara weather history for previous 24 hours

 ConditionsComfort  
Time TempWeatherWind HumidityBarometerVisibility
7:00 AM
Sun, Aug 30
61 °FBroken clouds.8 mph72%29.59 "HgN/A
6:30 AM61 °FPartly cloudy.10 mph72%29.59 "HgN/A
6:00 AM61 °FPassing clouds.13 mph72%29.59 "HgN/A
5:30 AM61 °FMostly cloudy.10 mph77%29.59 "HgN/A
5:00 AM63 °FMostly cloudy.10 mph73%29.59 "HgN/A
4:30 AM63 °FMostly cloudy.10 mph73%29.59 "HgN/A
4:00 AM63 °FMostly cloudy.13 mph73%29.59 "HgN/A
3:30 AM64 °FMostly cloudy.13 mph68%29.59 "HgN/A
3:00 AM63 °FMostly cloudy.8 mph73%29.59 "HgN/A
2:30 AM63 °FMostly cloudy.10 mph73%29.62 "HgN/A
2:00 AM64 °FMostly cloudy.10 mph64%29.62 "HgN/A
1:30 AM63 °FMostly cloudy.8 mph68%29.65 "HgN/A
1:00 AM63 °FSprinkles. Mostly cloudy.8 mph68%29.65 "HgN/A
12:30 AM66 °FMostly cloudy.10 mph56%29.68 "HgN/A
12:00 AM68 °FMostly cloudy.10 mph46%29.65 "HgN/A
11:30 PM
Sat, Aug 29
66 °FMostly cloudy.8 mph52%29.68 "HgN/A
11:00 PM66 °FMostly cloudy.8 mph52%29.71 "HgN/A
10:30 PM68 °FMostly cloudy.8 mph49%29.71 "HgN/A
10:00 PM66 °FMostly cloudy.3 mph56%29.74 "HgN/A
9:30 PM64 °FMostly cloudy.6 mph64%29.77 "HgN/A
9:00 PM70 °FMostly cloudy.8 mph43%29.77 "HgN/A
8:30 PM70 °FMore clouds than sun.8 mph43%29.80 "HgN/A
8:00 PM70 °FMore clouds than sun.8 mph46%29.80 "HgN/A
7:30 PM72 °FMore clouds than sun.8 mph41%29.80 "HgN/A
7:00 PM72 °FMore clouds than sun.6 mph41%29.80 "HgN/A
6:30 PM72 °FMore clouds than sun.3 mph38%29.83 "HgN/A
6:00 PM73 °FSunny.8 mph36%29.83 "Hg10 mi
5:30 PM73 °FSunny.10 mph36%29.83 "Hg10 mi
5:00 PM75 °FPassing clouds.8 mph34%29.86 "HgN/A
4:30 PM75 °FPassing clouds.13 mph34%29.86 "HgN/A
4:00 PM73 °FPassing clouds.13 mph36%29.89 "HgN/A
3:30 PM73 °FBroken clouds.13 mph38%29.89 "HgN/A
3:00 PM73 °FBroken clouds.6 mph44%29.89 "HgN/A
2:00 PM72 °FMore clouds than sun.6 mph50%29.92 "HgN/A
1:30 PM70 °FMore clouds than sun.6 mph53%29.92 "HgN/A
1:00 PM70 °FMore clouds than sun.6 mph53%29.95 "HgN/A
12:30 PM70 °FMore clouds than sun.8 mph53%29.95 "HgN/A
11:30 AM70 °FMore clouds than sun.8 mph53%29.95 "HgN/A
11:00 AM68 °FMore clouds than sun.6 mph60%29.95 "HgN/A
10:00 AM68 °FLight rain. More clouds than sun.6 mph60%29.95 "HgN/A
9:30 AM66 °FOvercast.8 mph64%29.95 "HgN/A
8:30 AM63 °FSunny.6 mph73%29.98 "Hg10 mi
8:00 AM63 °FSunny.6 mph73%29.95 "Hg10 mi
Weather by CustomWeather, © 2015

See weather overviewHow to use our weather pages